Zurück zum Katalog

ONEWEB-0668

AktivKommunikationPO
NORAD 56711·PAYLOAD·🇬🇧 United Kingdom

Gestartet May 20, 2023 von Vandenberg Space Force Base

Loading…

Nächste Überflüge (nächste 24 Stunden)

TLE

AktuellSource: CelesTrak SupGP

Epoche: Sep 14, 2026, 21:14 UTC

1 56711C 23068B   26257.88490001 -.00000180  00000+0 -47199-3 0  2571
2 56711  87.9147 210.9625 0001702  92.0419 303.8466 13.16594005    13

Verfolge ONEWEB-0668 in Echtzeit mit AllMySat

Download on the App Store